Regional Weather Roundup
Issued by NWS

Home | Current Version | Previous Version | Text Only | Print | Product List | Glossary Off
Versions: 1 2 3 4 5 6 7 8 9 10 11 12 13 14 15 16 17 18 19 20 21 22 23 24 25 26 27 28 29 30 31 32 33 34 35 36 37 38 39 40 41 42 43 44 45 46 47 48 49 50

000
ASUS45 KBOI 082010
RWRID

IDAHO REGIONAL WEATHER ROUNDUP
NATIONAL WEATHER SERVICE BOISE ID
100 PM MST MON FEB 08 2016

NOTE: "FAIR" INDICATES FEW OR NO CLOUDS BELOW 12000 FEET
WITH NO SIGNIFICANT WEATHER AND/OR OBSTRUCTIONS TO VISIBILITY

IDZ012-014-082100-
SOUTHWEST IDAHO


CITY           SKY/WX    TMP DP  RH WIND       PRES   REMARKS
BOISE          SUNNY     42  34  73 S10       30.70F
CALDWELL       CLOUDY    43  35  73 SE14      30.72F
MOUNTAIN HOME  CLOUDY    37  37 100 E16       30.71F WCI  28
$$

IDZ016-017-082100-
SOUTHCENTRAL IDAHO


CITY           SKY/WX    TMP DP  RH WIND       PRES   REMARKS
BURLEY         CLOUDY    31  28  89 NE12      30.68F WCI  22
JEROME         CLOUDY    29  27  92 NE21      30.69F WCI  16
TWIN FALLS     FOG       31  29  92 E8        30.68F VSB 3/4 WCI  23
$$

IDZ019>023-082100-
SOUTHEAST IDAHO


CITY           SKY/WX    TMP DP  RH WIND       PRES   REMARKS
IDAHO FALLS    CLOUDY    27  25  92 NW5       30.69F HAZE    WCI  22
POCATELLO      CLOUDY    29  26  89 VRB3      30.70F
REXBURG        CLOUDY    28  25  88 CALM      30.68F
$$

IDZ006-010-011-018-031-032-082100-
CENTRAL IDAHO MOUNTAINS


CITY           SKY/WX    TMP DP  RH WIND       PRES   REMARKS
MCCALL         SUNNY     30  27  88 CALM      30.61F
HAILEY         MOSUNNY   30  21  69 SE6       30.68  WCI  24
STANLEY          N/A     28  15  58 CALM      30.66F
SALMON         CLOUDY    30  19  64 CALM      30.69F
CHALLIS        SUNNY     23  14  68 NE3       30.67F
$$

IDZ002-004-006-007-026-082100-
NORTHERN IDAHO


CITY           SKY/WX    TMP DP  RH WIND       PRES   REMARKS
LEWISTON       SUNNY     47  35  63 CALM      30.59F
LOWELL           N/A     47  36  65 N5        30.62F
COEUR D`ALENE  SUNNY     45  34  65 N12       30.58S
MULLAN PASS    SUNNY     39  29  67 SW3       30.55F
$$



USA.gov is the U.S. government's official web portal to all federal, state and local government web resources and services.